• In Hungary
  • List of Countries
  • For 7 days
  • Water Temperature
  • Satellite Maps
  • Weather Map
  • News
  • Weather Widgets
  • user-avatar
    Login

    Hourly Weather Bogorodskoe

    Today, 13 November, Tuesday

    Time Temperature Precipitation Wind Pressure Humidity
    00:00 -7°C° 0 mm 1 mps 780 mmHg 37%
    01:00 -7°C° 0 mm 1 mps 780 mmHg 37%
    02:00 -7°C° 0 mm 1 mps 780 mmHg 37%
    03:00 -7°C° 0 mm 1 mps 780 mmHg 40%
    04:00 -7°C° 0 mm 1 mps 780 mmHg 40%
    05:00 -7°C° 0 mm 1 mps 780 mmHg 41%
    06:00 -7°C° 0 mm 1 mps 780 mmHg 41%
    07:00 -7°C° 0 mm 1 mps 780 mmHg 39%
    08:00 -6°C° 0 mm 1 mps 780 mmHg 37%
    09:00 -6°C° 0 mm 1 mps 780 mmHg 34%
    10:00 -4°C° 0 mm 1 mps 780 mmHg 31%
    11:00 -3°C° 0 mm 1 mps 779 mmHg 29%
    12:00 -3°C° 0 mm 1 mps 779 mmHg 26%
    13:00 -2°C° 0 mm 1 mps 779 mmHg 26%
    14:00 -2°C° 0 mm 1 mps 778 mmHg 26%
    15:00 -4°C° 0 mm 0 mps 778 mmHg 29%
    16:00 -4°C° 0 mm 0 mps 778 mmHg 30%
    17:00 -3°C° 0 mm 1 mps 778 mmHg 31%
    18:00 -4°C° 0 mm 1 mps 778 mmHg 33%
    19:00 -4°C° 0 mm 1 mps 777 mmHg 33%
    20:00 -4°C° 0 mm 1 mps 777 mmHg 34%
    21:00 -4°C° 0 mm 1 mps 777 mmHg 34%
    22:00 -6°C° 0 mm 1 mps 776 mmHg 35%
    23:00 -6°C° 0 mm 1 mps 776 mmHg 35%

    Tomorrow, 14 November, Wednesday

    Time Temperature Precipitation Wind Pressure Humidity
    00:00 -6°C° 0 mm 1 mps 776 mmHg 35%
    01:00 -6°C° 0 mm 1 mps 776 mmHg 35%
    02:00 -6°C° 0 mm 1 mps 775 mmHg 36%
    03:00 -6°C° 0 mm 1 mps 775 mmHg 36%
    04:00 -6°C° 0 mm 1 mps 775 mmHg 36%
    05:00 -6°C° 0 mm 1 mps 774 mmHg 36%
    06:00 -6°C° 0 mm 1 mps 774 mmHg 36%
    07:00 -6°C° 0 mm 1 mps 774 mmHg 34%
    08:00 -6°C° 0 mm 2 mps 774 mmHg 33%
    09:00 -6°C° 0 mm 2 mps 774 mmHg 31%
    10:00 -5°C° 0 mm 2 mps 774 mmHg 29%
    11:00 -4°C° 0 mm 2 mps 773 mmHg 26%
    12:00 -3°C° 0 mm 2 mps 773 mmHg 24%
    13:00 -3°C° 0 mm 2 mps 773 mmHg 24%
    14:00 -3°C° 0 mm 2 mps 772 mmHg 25%
    15:00 -3°C° 0 mm 2 mps 772 mmHg 25%
    16:00 -4°C° 0 mm 2 mps 772 mmHg 27%
    17:00 -4°C° 0 mm 2 mps 772 mmHg 28%
    18:00 -5°C° 0 mm 2 mps 772 mmHg 29%
    19:00 -5°C° 0 mm 2 mps 772 mmHg 29%
    20:00 -5°C° 0 mm 2 mps 772 mmHg 29%
    21:00 -5°C° 0 mm 2 mps 772 mmHg 29%
    22:00 -5°C° 0 mm 2 mps 772 mmHg 29%
    23:00 -6°C° 0 mm 2 mps 772 mmHg 29%

    Day after tomorrow, 15 November, Thursday

    Time Temperature Precipitation Wind Pressure Humidity
    00:00 -6°C° 0 mm 2 mps 772 mmHg 29%
    01:00 -6°C° 0 mm 2 mps 772 mmHg 29%
    02:00 -4°C° 0 mm 1 mps 772 mmHg 29%
    03:00 -4°C° 0 mm 1 mps 772 mmHg 29%
    04:00 -4°C° 0 mm 1 mps 772 mmHg 29%
    05:00 -4°C° 0 mm 1 mps 772 mmHg 29%
    06:00 -6°C° 0 mm 1 mps 772 mmHg 28%
    07:00 -4°C° 0 mm 1 mps 773 mmHg 27%
    08:00 -3°C° 0 mm 1 mps 773 mmHg 26%
    09:00 -3°C° 0 mm 1 mps 773 mmHg 24%
    10:00 -2°C° 0 mm 1 mps 773 mmHg 23%
    11:00 -3°C° 0 mm 2 mps 773 mmHg 21%
    12:00 -2°C° 0 mm 2 mps 773 mmHg 19%
    13:00 -2°C° 0 mm 2 mps 773 mmHg 20%
    14:00 -2°C° 0 mm 2 mps 773 mmHg 21%
    15:00 0°C° 0 mm 1 mps 773 mmHg 22%
    16:00 -3°C° 0 mm 2 mps 773 mmHg 23%
    17:00 -4°C° 0 mm 2 mps 773 mmHg 23%
    18:00 -4°C° 0 mm 2 mps 773 mmHg 24%
    19:00 -4°C° 0 mm 2 mps 773 mmHg 24%
    20:00 -4°C° 0 mm 2 mps 774 mmHg 24%
    21:00 -5°C° 0 mm 2 mps 774 mmHg 25%
    22:00 -5°C° 0 mm 2 mps 774 mmHg 25%
    23:00 -5°C° 0 mm 2 mps 774 mmHg 25%

    16 November, Friday

    Time Temperature Precipitation Wind Pressure Humidity
    00:00 -5°C° 0 mm 2 mps 774 mmHg 25%
    01:00 -5°C° 0 mm 2 mps 774 mmHg 25%
    02:00 -5°C° 0 mm 2 mps 774 mmHg 25%
    03:00 -6°C° 0 mm 2 mps 775 mmHg 25%
    04:00 -6°C° 0 mm 2 mps 775 mmHg 25%
    05:00 -6°C° 0 mm 2 mps 775 mmHg 25%
    06:00 -6°C° 0 mm 2 mps 775 mmHg 26%
    07:00 -5°C° 0 mm 2 mps 775 mmHg 25%
    08:00 -5°C° 0 mm 2 mps 775 mmHg 24%
    09:00 -5°C° 0 mm 2 mps 775 mmHg 23%
    10:00 -3°C° 0 mm 2 mps 775 mmHg 22%
    11:00 -2°C° 0 mm 2 mps 775 mmHg 20%
    12:00 -1°C° 0 mm 2 mps 775 mmHg 18%
    13:00 -2°C° 0 mm 2 mps 775 mmHg 19%
    14:00 -2°C° 0 mm 2 mps 774 mmHg 21%
    15:00 -2°C° 0 mm 2 mps 774 mmHg 22%
    16:00 -3°C° 0 mm 2 mps 774 mmHg 23%
    17:00 -3°C° 0 mm 2 mps 774 mmHg 24%
    18:00 -4°C° 0 mm 2 mps 774 mmHg 25%
    19:00 -4°C° 0 mm 2 mps 774 mmHg 25%
    20:00 -2°C° 0 mm 1 mps 774 mmHg 25%
    21:00 -3°C° 0 mm 1 mps 773 mmHg 25%
    22:00 -3°C° 0 mm 1 mps 773 mmHg 24%
    23:00 -3°C° 0 mm 1 mps 773 mmHg 24%

    17 November, Saturday

    Time Temperature Precipitation Wind Pressure Humidity
    00:00 -3°C° 0 mm 1 mps 773 mmHg 24%
    01:00 -3°C° 0 mm 1 mps 773 mmHg 23%
    02:00 -3°C° 0 mm 1 mps 772 mmHg 23%
    03:00 -3°C° 0 mm 1 mps 772 mmHg 23%
    04:00 -3°C° 0 mm 1 mps 772 mmHg 22%
    05:00 -3°C° 0 mm 1 mps 771 mmHg 22%
    06:00 -3°C° 0 mm 1 mps 771 mmHg 22%
    07:00 -3°C° 0 mm 1 mps 771 mmHg 21%
    08:00 -2°C° 0 mm 1 mps 770 mmHg 20%
    09:00 -2°C° 0 mm 1 mps 770 mmHg 19%
    10:00 -1°C° 0 mm 1 mps 770 mmHg 18%
    11:00 +1°C° 0 mm 1 mps 769 mmHg 17%
    12:00 +2°C° 0 mm 1 mps 769 mmHg 16%
    13:00 -1°C° 0 mm 2 mps 768 mmHg 18%
    14:00 -1°C° 0 mm 2 mps 767 mmHg 19%
    15:00 -1°C° 0 mm 2 mps 767 mmHg 21%
    16:00 -2°C° 0 mm 2 mps 766 mmHg 22%
    17:00 -2°C° 0 mm 2 mps 766 mmHg 23%
    18:00 -3°C° 0 mm 2 mps 765 mmHg 24%
    19:00 -3°C° 0 mm 2 mps 765 mmHg 24%
    20:00 -3°C° 0 mm 2 mps 765 mmHg 25%
    21:00 -3°C° 0 mm 2 mps 764 mmHg 25%
    22:00 -4°C° 0 mm 2 mps 764 mmHg 26%
    23:00 -4°C° 0 mm 2 mps 763 mmHg 26%

    18 November, Sunday

    Time Temperature Precipitation Wind Pressure Humidity
    00:00 -4°C° 0 mm 2 mps 763 mmHg 26%
    01:00 -4°C° 0 mm 2 mps 762 mmHg 27%
    02:00 -4°C° 0 mm 2 mps 762 mmHg 27%
    03:00 -4°C° 0 mm 2 mps 762 mmHg 27%
    04:00 -4°C° 0 mm 2 mps 761 mmHg 27%
    05:00 -5°C° 0 mm 2 mps 761 mmHg 28%
    06:00 -5°C° 0 mm 2 mps 761 mmHg 28%
    07:00 -4°C° 0 mm 2 mps 761 mmHg 26%
    08:00 -4°C° 0 mm 2 mps 761 mmHg 25%
    09:00 -3°C° 0 mm 2 mps 761 mmHg 24%
    10:00 -2°C° 0 mm 2 mps 761 mmHg 22%
    11:00 -1°C° 0 mm 2 mps 760 mmHg 20%
    12:00 +1°C° 0 mm 2 mps 760 mmHg 18%
    13:00 -1°C° 0 mm 2 mps 760 mmHg 20%
    14:00 -1°C° 0 mm 2 mps 760 mmHg 21%
    15:00 -1°C° 0 mm 2 mps 760 mmHg 23%
    16:00 -2°C° 0 mm 2 mps 761 mmHg 23%
    17:00 -2°C° 0 mm 2 mps 761 mmHg 24%
    18:00 -2°C° 0 mm 2 mps 761 mmHg 24%
    19:00 -3°C° 0 mm 2 mps 761 mmHg 24%
    20:00 -3°C° 0 mm 2 mps 762 mmHg 24%
    21:00 -3°C° 0 mm 2 mps 762 mmHg 24%
    22:00 -3°C° 0 mm 2 mps 762 mmHg 24%
    23:00 -3°C° 0 mm 2 mps 763 mmHg 24%
    Show more